| time (UTC) | temp C | wind direction | speed KPH | gust KPH | rain 1hr cm | rain 24hr cm | rain mn cm | humidity % | barometer mb |
| 20260507040935 | 15 | 73 | 3.2 | 4.8 | 0.00 | 0.30 | 0.00 | 84 | 1011.9 |
| 20260507040435 | 15 | 119 | 1.6 | 9.7 | 0.00 | 0.33 | 0.00 | 83 | 1011.9 |
| 20260507035935 | 15 | 79 | 4.8 | 11.3 | 0.00 | 0.36 | 0.00 | 84 | 1012.0 |
| 20260507035436 | 15 | 76 | 3.2 | 11.3 | 0.00 | 0.38 | 0.00 | 84 | 1011.9 |
| 20260507034936 | 15 | 107 | 1.6 | 8.0 | 0.00 | 0.41 | 0.00 | 83 | 1011.9 |
| 20260507034435 | 15 | 41 | 1.6 | 4.8 | 0.00 | 0.41 | 0.00 | 83 | 1012.0 |
| 20260507033436 | 15 | 83 | 4.8 | 11.3 | 0.00 | 0.41 | 0.00 | 83 | 1012.0 |
| 20260507031435 | 15 | 54 | 3.2 | 4.8 | 0.00 | 0.41 | 0.00 | 83 | 1012.0 |
| 20260507030935 | 15 | 76 | 1.6 | 8.0 | 0.00 | 0.41 | 0.00 | 83 | 1012.0 |
| 20260507030436 | 15 | 123 | 6.4 | 12.9 | 0.00 | 0.41 | 0.00 | 83 | 1011.9 |
| 20260507025935 | 15 | 101 | 4.8 | 14.5 | 0.00 | 0.41 | 0.00 | 83 | 1011.9 |
| 20260507024935 | 15 | 99 | 3.2 | 8.0 | 0.00 | 0.41 | 0.00 | 83 | 1011.8 |
| 20260507024438 | 15 | 145 | 3.2 | 4.8 | 0.00 | 0.43 | 0.00 | 83 | 1011.8 |
| 20260507023436 | 15 | 67 | 1.6 | 11.3 | 0.00 | 0.43 | 0.00 | 83 | 1011.9 |
| 20260507022936 | 15 | 58 | 3.2 | 8.0 | 0.00 | 0.43 | 0.00 | 83 | 1011.8 |
| 20260507022435 | 15 | 111 | 3.2 | 11.3 | 0.00 | 0.46 | 0.00 | 83 | 1011.8 |
| 20260507021935 | 15 | 103 | 4.8 | 19.3 | 0.00 | 0.46 | 0.00 | 83 | 1011.8 |
| 20260507021436 | 15 | 87 | 3.2 | 11.3 | 0.00 | 0.51 | 0.00 | 83 | 1011.9 |
| 20260507020935 | 15 | 92 | 3.2 | 8.0 | 0.00 | 0.51 | 0.00 | 83 | 1011.8 |
| 20260507015935 | 15 | 82 | 4.8 | 9.7 | 0.00 | 0.58 | 0.00 | 83 | 1011.8 |
| 20260507015435 | 15 | 90 | 1.6 | 9.7 | 0.00 | 0.64 | 0.00 | 83 | 1011.8 |
| 20260507014935 | 15 | 86 | 4.8 | 16.1 | 0.00 | 0.69 | 0.00 | 83 | 1011.8 |
| 20260507013936 | 15 | 119 | 4.8 | 9.7 | 0.00 | 0.79 | 0.00 | 83 | 1011.7 |
| 20260507013435 | 15 | 42 | 1.6 | 8.0 | 0.00 | 0.84 | 0.00 | 84 | 1011.7 |
| 20260507012935 | 15 | 69 | 1.6 | 4.8 | 0.00 | 0.91 | 0.00 | 83 | 1011.8 |
| 20260507012435 | 15 | 60 | 3.2 | 11.3 | 0.00 | 0.99 | 0.00 | 83 | 1011.8 |
| 20260507011935 | 15 | 116 | 3.2 | 11.3 | 0.00 | 1.09 | 0.00 | 83 | 1011.8 |
| 20260507011435 | 15 | 18 | 1.6 | 4.8 | 0.00 | 1.27 | 0.00 | 83 | 1011.9 |
| 20260507010935 | 15 | 346 | 1.6 | 9.7 | 0.00 | 1.42 | 0.00 | 83 | 1011.9 |
| 20260507010442 | 15 | 117 | 1.6 | 4.8 | 0.00 | 1.45 | 0.00 | 83 | 1011.9 |
| 20260507005936 | 15 | 289 | 8.0 | 14.5 | 0.00 | 1.45 | 0.00 | 83 | 1011.9 |
| 20260507005435 | 15 | 332 | 1.6 | 14.5 | 0.00 | 1.45 | 0.00 | 83 | 1011.9 |
| 20260507004935 | 15 | 128 | 3.2 | 12.9 | 0.00 | 1.50 | 0.00 | 83 | 1012.0 |
| 20260507004435 | 15 | 339 | 1.6 | 4.8 | 0.00 | 1.50 | 0.00 | 84 | 1012.1 |
| 20260507003935 | 15 | 38 | 1.6 | 8.0 | 0.00 | 1.52 | 0.00 | 84 | 1012.0 |
| 20260507003435 | 15 | 357 | 1.6 | 8.0 | 0.00 | 1.52 | 0.00 | 83 | 1011.9 |
| 20260507002436 | 15 | 17 | 3.2 | 9.7 | 0.00 | 1.52 | 0.00 | 83 | 1011.8 |
| 20260507001435 | 15 | 289 | 1.6 | 11.3 | 0.00 | 1.55 | 0.00 | 84 | 1011.8 |
| 20260507000936 | 15 | 352 | 1.6 | 9.7 | 0.00 | 1.55 | 0.00 | 83 | 1011.7 |
| 20260507000437 | 15 | 322 | 3.2 | 11.3 | 0.00 | 1.55 | 0.00 | 83 | 1011.8 |
| 20260506234935 | 15 | 337 | 3.2 | 11.3 | 0.00 | 1.55 | 0.00 | 83 | 1011.9 |
| 20260506234435 | 15 | 349 | 0.0 | 9.7 | 0.00 | 1.55 | 0.00 | 82 | 1011.9 |
| 20260506233936 | 15 | 48 | 4.8 | 8.0 | 0.00 | 1.55 | 0.00 | 82 | 1012.0 |
| 20260506233435 | 15 | 359 | 3.2 | 8.0 | 0.00 | 1.55 | 0.00 | 82 | 1012.0 |
| 20260506232437 | 15 | 41 | 1.6 | 11.3 | 0.00 | 1.55 | 0.00 | 82 | 1012.0 |
| 20260506231935 | 15 | 75 | 3.2 | 16.1 | 0.00 | 1.55 | 0.00 | 81 | 1011.9 |
| 20260506231436 | 15 | 21 | 3.2 | 12.9 | 0.00 | 1.55 | 0.00 | 81 | 1011.9 |
| 20260506230935 | 15 | 27 | 3.2 | 8.0 | 0.00 | 1.55 | 0.00 | 81 | 1011.9 |
| 20260506230436 | 15 | 336 | 4.8 | 11.3 | 0.00 | 1.55 | 0.00 | 81 | 1011.9 |
| 20260506225436 | 15 | 53 | 1.6 | 11.3 | 0.00 | 1.55 | 0.00 | 81 | 1012.0 |
| 20260506224935 | 15 | 87 | 3.2 | 8.0 | 0.00 | 1.55 | 0.00 | 82 | 1012.0 |
| 20260506224435 | 15 | 315 | 1.6 | 12.9 | 0.00 | 1.55 | 0.00 | 82 | 1012.0 |
| 20260506223935 | 15 | 351 | 3.2 | 12.9 | 0.00 | 1.55 | 0.00 | 82 | 1012.0 |
| 20260506223435 | 15 | 49 | 3.2 | 11.3 | 0.00 | 1.55 | 0.00 | 82 | 1011.9 |
| 20260506222436 | 15 | 3 | 4.8 | 12.9 | 0.00 | 1.55 | 0.00 | 81 | 1012.0 |
| 20260506221435 | 15 | 168 | 4.8 | 12.9 | 0.00 | 1.75 | 0.00 | 82 | 1011.9 |
| 20260506220937 | 15 | 152 | 4.8 | 9.7 | 0.00 | 1.83 | 0.00 | 82 | 1012.0 |
| 20260506220436 | 15 | 214 | 3.2 | 9.7 | 0.00 | 1.83 | 0.00 | 82 | 1012.0 |
| 20260506215435 | 15 | 50 | 3.2 | 11.3 | 0.00 | 1.83 | 1.83 | 83 | 1012.0 |
| 20260506214936 | 15 | 39 | 1.6 | 8.0 | 0.00 | 1.83 | 1.83 | 82 | 1012.0 |
| 20260506214435 | 15 | 314 | 1.6 | 4.8 | 0.00 | 1.83 | 1.83 | 83 | 1012.0 |
| 20260506213938 | 15 | 82 | 1.6 | 4.8 | 0.00 | 1.83 | 1.83 | 83 | 1012.0 |
| 20260506213435 | 15 | 282 | 1.6 | 4.8 | 0.00 | 1.83 | 1.83 | 82 | 1012.0 |
| 20260506212935 | 15 | 337 | 1.6 | 4.8 | 0.00 | 1.83 | 1.83 | 82 | 1012.0 |
| 20260506212435 | 15 | 281 | 0.0 | 8.0 | 0.00 | 1.83 | 1.83 | 83 | 1012.0 |
| 20260506211935 | 15 | 94 | 4.8 | 14.5 | 0.00 | 1.83 | 1.83 | 83 | 1012.0 |
| 20260506211442 | 15 | 56 | 1.6 | 4.8 | 0.00 | 1.83 | 1.83 | 83 | 1011.9 |
| 20260506210935 | 15 | 270 | 1.6 | 4.8 | 0.00 | 1.83 | 1.83 | 83 | 1011.9 |
| 20260506205939 | 15 | 13 | 1.6 | 8.0 | 0.00 | 1.83 | 1.83 | 83 | 1011.9 |
| 20260506205435 | 15 | 166 | 4.8 | 11.3 | 0.00 | 1.83 | 1.83 | 83 | 1012.0 |
| 20260506204936 | 15 | 348 | 1.6 | 12.9 | 0.00 | 1.83 | 1.83 | 83 | 1011.9 |
| 20260506204435 | 15 | 75 | 4.8 | 12.9 | 0.00 | 1.83 | 1.83 | 83 | 1011.9 |
| 20260506203435 | 15 | 66 | 3.2 | 12.9 | 0.00 | 1.83 | 1.83 | 83 | 1011.8 |
| 20260506202935 | 15 | 53 | 1.6 | 12.9 | 0.00 | 1.83 | 1.83 | 83 | 1011.8 |
| 20260506201435 | 15 | 285 | 1.6 | 8.0 | 0.00 | 1.83 | 1.83 | 82 | 1011.7 |
| 20260506200436 | 15 | 61 | 4.8 | 11.3 | 0.00 | 1.83 | 1.83 | 82 | 1011.6 |
| 20260506195936 | 15 | 72 | 4.8 | 12.9 | 0.00 | 1.83 | 1.83 | 82 | 1011.5 |
| 20260506195437 | 15 | 189 | 4.8 | 9.7 | 0.00 | 1.83 | 1.83 | 82 | 1011.5 |
| 20260506194935 | 15 | 80 | 1.6 | 8.0 | 0.00 | 1.83 | 1.83 | 82 | 1011.4 |
| 20260506193936 | 15 | 16 | 0.0 | 11.3 | 0.00 | 1.83 | 1.83 | 82 | 1011.3 |
| 20260506192935 | 15 | 73 | 3.2 | 8.0 | 0.00 | 1.83 | 1.83 | 83 | 1011.2 |
| 20260506192435 | 15 | 17 | 3.2 | 8.0 | 0.00 | 1.83 | 1.83 | 83 | 1011.2 |
| 20260506191936 | 15 | 76 | 1.6 | 8.0 | 0.00 | 1.83 | 1.83 | 83 | 1011.1 |
| 20260506190936 | 15 | 173 | 0.0 | 4.8 | 0.00 | 1.83 | 1.83 | 83 | 1011.0 |
| 20260506190435 | 15 | 139 | 4.8 | 19.3 | 0.00 | 1.83 | 1.83 | 83 | 1010.9 |
| 20260506185935 | 15 | 58 | 4.8 | 11.3 | 0.00 | 1.83 | 1.83 | 84 | 1010.8 |
| 20260506185436 | 15 | 263 | 3.2 | 8.0 | 0.00 | 1.83 | 1.83 | 83 | 1010.7 |
| 20260506184935 | 15 | 152 | 4.8 | 11.3 | 0.00 | 1.83 | 1.83 | 84 | 1010.7 |
| 20260506183435 | 15 | 45 | 3.2 | 11.3 | 0.00 | 1.83 | 1.83 | 85 | 1010.5 |
| 20260506182435 | 15 | 17 | 1.6 | 11.3 | 0.00 | 1.83 | 1.83 | 85 | 1010.4 |
| 20260506181935 | 15 | 328 | 3.2 | 11.3 | 0.00 | 1.83 | 1.83 | 85 | 1010.4 |
| 20260506181442 | 15 | 26 | 3.2 | 14.5 | 0.00 | 1.83 | 1.83 | 85 | 1010.3 |
| 20260506180935 | 15 | 89 | 3.2 | 12.9 | 0.00 | 1.83 | 1.83 | 85 | 1010.2 |
| 20260506175935 | 15 | 39 | 8.0 | 16.1 | 0.00 | 1.83 | 1.83 | 85 | 1010.0 |
| 20260506175435 | 16 | 94 | 8.0 | 19.3 | 0.00 | 1.83 | 1.83 | 85 | 1010.0 |
| 20260506174935 | 16 | 131 | 3.2 | 16.1 | 0.00 | 1.83 | 1.83 | 85 | 1010.0 |
| 20260506174438 | 16 | 340 | 3.2 | 11.3 | 0.00 | 1.83 | 1.83 | 85 | 1010.0 |
| 20260506173935 | 16 | 79 | 3.2 | 11.3 | 0.00 | 1.83 | 1.83 | 85 | 1009.9 |
| 20260506172935 | 16 | 63 | 6.4 | 14.5 | 0.00 | 1.83 | 1.83 | 84 | 1009.9 |
| 20260506172435 | 16 | 18 | 3.2 | 8.0 | 0.00 | 1.83 | 1.83 | 83 | 1009.8 |
| 20260506171935 | 16 | 39 | 6.4 | 14.5 | 0.00 | 1.83 | 1.83 | 83 | 1009.8 |
| 20260506171435 | 16 | 338 | 3.2 | 12.9 | 0.00 | 1.83 | 1.83 | 83 | 1009.7 |
| 20260506170942 | 16 | 12 | 8.0 | 16.1 | 0.00 | 1.83 | 1.83 | 82 | 1009.8 |
| 20260506170435 | 16 | 16 | 1.6 | 19.3 | 0.00 | 1.83 | 1.83 | 82 | 1009.7 |
| 20260506165935 | 16 | 5 | 3.2 | 11.3 | 0.00 | 1.83 | 1.83 | 82 | 1009.6 |
| 20260506165435 | 17 | 14 | 3.2 | 9.7 | 0.00 | 1.83 | 1.83 | 81 | 1009.6 |
| 20260506164935 | 17 | 265 | 3.2 | 9.7 | 0.00 | 1.83 | 1.83 | 81 | 1009.6 |
| 20260506164435 | 17 | 258 | 3.2 | 12.9 | 0.00 | 1.83 | 1.83 | 82 | 1009.7 |
| 20260506163935 | 17 | 298 | 1.6 | 8.0 | 0.00 | 1.83 | 1.83 | 82 | 1009.7 |
| 20260506163436 | 16 | 349 | 3.2 | 16.1 | 0.00 | 1.83 | 1.83 | 82 | 1009.8 |
| 20260506162935 | 16 | 335 | 3.2 | 8.0 | 0.00 | 1.83 | 1.83 | 82 | 1009.8 |
| 20260506162435 | 17 | 70 | 4.8 | 12.9 | 0.00 | 1.83 | 1.83 | 82 | 1009.7 |
| 20260506161935 | 17 | 55 | 4.8 | 11.3 | 0.00 | 1.83 | 1.83 | 81 | 1009.7 |
| 20260506161435 | 17 | 11 | 3.2 | 11.3 | 0.00 | 1.83 | 1.83 | 82 | 1009.7 |
| 20260506160940 | 17 | 286 | 3.2 | 9.7 | 0.00 | 1.83 | 1.83 | 82 | 1009.7 |
| 20260506160438 | 17 | 285 | 3.2 | 8.0 | 0.00 | 1.83 | 1.83 | 83 | 1009.7 |
| 20260506155936 | 17 | 354 | 4.8 | 12.9 | 0.00 | 1.83 | 1.83 | 82 | 1009.7 |
| 20260506154935 | 17 | 261 | 3.2 | 12.9 | 0.00 | 1.83 | 1.83 | 81 | 1009.6 |
| 20260506154435 | 17 | 274 | 1.6 | 9.7 | 0.00 | 1.83 | 1.83 | 80 | 1009.6 |
| 20260506153942 | 17 | 169 | 4.8 | 12.9 | 0.00 | 1.83 | 1.83 | 80 | 1009.7 |
| 20260506153436 | 18 | 139 | 4.8 | 19.3 | 0.00 | 1.83 | 1.83 | 82 | 1009.7 |
| 20260506152935 | 18 | 336 | 3.2 | 12.9 | 0.00 | 1.83 | 1.83 | 81 | 1009.6 |
| 20260506152435 | 18 | 246 | 8.0 | 11.3 | 0.00 | 1.83 | 1.83 | 80 | 1009.6 |
| 20260506151935 | 18 | 236 | 4.8 | 19.3 | 0.00 | 1.83 | 1.83 | 81 | 1009.5 |
| 20260506151437 | 18 | 223 | 4.8 | 14.5 | 0.00 | 1.83 | 1.83 | 82 | 1009.6 |
| 20260506150935 | 18 | 139 | 8.0 | 14.5 | 0.00 | 1.83 | 1.83 | 81 | 1009.6 |
| 20260506150435 | 18 | 200 | 8.0 | 19.3 | 0.00 | 1.83 | 1.83 | 80 | 1009.5 |
| 20260506145936 | 18 | 271 | 4.8 | 16.1 | 0.00 | 1.83 | 1.83 | 79 | 1009.5 |
| 20260506145451 | 18 | 217 | 8.0 | 14.5 | 0.00 | 1.83 | 1.83 | 78 | 1009.4 |
| 20260506144935 | 18 | 279 | 8.0 | 24.1 | 0.00 | 1.83 | 1.83 | 81 | 1009.4 |
| 20260506144435 | 18 | 331 | 3.2 | 9.7 | 0.00 | 1.83 | 1.83 | 80 | 1009.5 |
| 20260506143939 | 18 | 10 | 3.2 | 12.9 | 0.00 | 1.83 | 1.83 | 82 | 1009.5 |
| 20260506143437 | 17 | 195 | 4.8 | 12.9 | 0.00 | 1.83 | 1.83 | 81 | 1009.5 |
| 20260506142936 | 17 | 36 | 4.8 | 12.9 | 0.00 | 1.83 | 1.83 | 81 | 1009.5 |
| 20260506141935 | 18 | 221 | 3.2 | 11.3 | 0.00 | 1.83 | 1.83 | 79 | 1009.6 |
| 20260506141435 | 18 | 227 | 6.4 | 12.9 | 0.00 | 1.83 | 1.83 | 79 | 1009.6 |
| 20260506140935 | 18 | 207 | 4.8 | 14.5 | 0.00 | 1.83 | 1.83 | 82 | 1009.6 |
| 20260506140435 | 18 | 231 | 3.2 | 12.9 | 0.00 | 1.83 | 1.83 | 80 | 1009.6 |
| 20260506135935 | 18 | 344 | 3.2 | 12.9 | 0.00 | 1.83 | 1.83 | 80 | 1009.7 |
| 20260506134935 | 18 | 303 | 4.8 | 11.3 | 0.00 | 1.83 | 1.83 | 78 | 1009.7 |
| 20260506134435 | 18 | 298 | 6.4 | 19.3 | 0.00 | 1.83 | 1.83 | 78 | 1009.8 |
| 20260506133435 | 18 | 267 | 4.8 | 19.3 | 0.00 | 1.83 | 1.83 | 80 | 1009.8 |
| 20260506132937 | 18 | 200 | 9.7 | 19.3 | 0.00 | 1.83 | 1.83 | 80 | 1009.9 |
| 20260506132435 | 18 | 283 | 4.8 | 16.1 | 0.00 | 1.83 | 1.83 | 81 | 1009.8 |
| 20260506131940 | 18 | 195 | 8.0 | 16.1 | 0.00 | 1.83 | 1.83 | 80 | 1009.8 |
| 20260506131436 | 18 | 159 | 6.4 | 16.1 | 0.00 | 1.83 | 1.83 | 80 | 1009.8 |
| 20260506130935 | 18 | 226 | 8.0 | 14.5 | 0.00 | 1.83 | 1.83 | 84 | 1009.7 |
| 20260506125935 | 18 | 213 | 4.8 | 11.3 | 0.00 | 1.83 | 1.83 | 83 | 1009.7 |
| 20260506125435 | 18 | 283 | 3.2 | 16.1 | 0.00 | 1.83 | 1.83 | 83 | 1009.8 |